weather.gov     
National Weather Service

Regional Weather Roundup
NWS Homepage
This page is being discontinued on March 12, 2014.
The same data is available at this site. Please update your bookmarks.
Thank you, and we apologize for the inconvenience.
Please send an email to SR-SRH.Webmaster@noaa.gov with any concerns.


Current Version
Previous Version:    01  02  03  04  05  06  07  08  09  10  11  12  13  14  15  16  17  18  19  20  21  22  23  24  25  26  27  28  29  
[Printable]
870
ASUS41 KOKX 230805
RWROKX

REGIONAL WEATHER ROUNDUP
NATIONAL WEATHER SERVICE NEW YORK NY
400 AM EDT TUE SEP 23 2014

NOTE: "FAIR" INDICATES FEW OR NO CLOUDS BELOW 12,000 FEET WITH NO
SIGNIFICANT WEATHER AND/OR OBSTRUCTIONS TO VISIBILITY.

NYZ071-072-176-178-NJZ106-104-230900-
NEW YORK CITY METRO AREA


CITY           SKY/WX    TMP DP  RH WIND       PRES   REMARKS
CENTRAL PARK   CLEAR     53  39  59 W5        30.24R
LAGUARDIA APRT PTCLDY    54  40  59 NW9       30.21R
KENNEDY INTL   PTCLDY    53  38  56 NW7       30.22R
NEWARK/LIBERTY PTCLDY    51  40  65 CALM      30.22R
BRNX BOT. GARD   N/A     52  39  62 SW3       30.23R
TETERBORO      CLEAR     47  39  74 CALM      30.21R
$$

NYZ177-179-078>081-230900-
LONG ISLAND NEW YORK

CITY           SKY/WX    TMP DP  RH WIND       PRES   REMARKS
FARMINGDALE    CLEAR     51  40  65 CALM      30.21R
ISLIP          CLEAR     45  40  82 CALM      30.19R
SHIRLEY        CLEAR     43  40  89 NW5       30.21R
WESTHAMPTON    CLEAR     53  40  61 N5        30.21
MONTAUK POINT    N/A     56  41  57 NW7       30.20R
$$

NYZ052-065-067-230900-
HUDSON VALLEY

CITY           SKY/WX    TMP DP  RH WIND       PRES   REMARKS
WHITE PLAINS   CLEAR     45  40  82 NW5       30.20R
NEWBURGH       NOT AVBL
MONTGOMERY     CLEAR     40  37  89 S3        30.21R
POUGHKEEPSIE   CLEAR     41  38  89 CALM      30.20R
ALBANY         CLEAR     45  41  86 CALM      30.21R
$$

NJZ001-105-106-008-010-013-015-019>022-104-230900-
NEW JERSEY

CITY           SKY/WX    TMP DP  RH WIND       PRES   REMARKS
NEWARK/LIBERTY PTCLDY    51  40  65 CALM      30.22R
TETERBORO      CLEAR     47  39  74 CALM      30.21R
CALDWELL       CLEAR     44  38  79 S3        30.23R
MORRISTOWN     CLEAR     41  37  87 CALM      30.23R
SOMERVILLE     CLEAR     41  38  89 NE3       30.22R
LINDEN         FAIR      53  44  70 NW6       30.24R
SUSSEX         CLEAR     42  38  85 CALM      30.23R
ANDOVER          N/A     41  39  93 CALM      30.23R
TRENTON        CLEAR     47  40  76 NW5       30.22R
MILLVILLE      MOCLDY    48  43  82 CALM      30.23R
ATLANTIC CITY  MOCLDY    48  44  86 NW3       30.22R
WRIGHTSTOWN    PTCLDY    47  41  78 NW3       30.20S
TOMS RIVER     PTCLDY    45  39  81 CALM      30.21F
BELMAR         PTCLDY    46  37  71 NW5       30.21S
$$

PAZ047>061-062-071-230900-
EASTERN PENNSYLVANIA

CITY           SKY/WX    TMP DP  RH WIND       PRES   REMARKS
PHILADELPHIA   PTCLDY    52  41  66 NW3       30.24S
ALLENTOWN      CLEAR     45  38  76 W6        30.24R
SCRANTON       CLEAR     42  39  89 CALM      30.24R
$$

CTZ002-004>006-009-010-012-RIZ004-006-007-MAZ004-011-015-230900-
SOUTHERN NEW ENGLAND
 IN CT

CITY           SKY/WX    TMP DP  RH WIND       PRES   REMARKS
BRADLEY INTL   CLEAR     47  39  74 W3        30.17R
HARTFORD       CLEAR     47  40  76 CALM      30.18R
DANBURY        CLEAR     41  38  89 SW3       30.21R
WTRBRY/OXFORD  CLEAR     41  34  75 NW3       30.21R
BRIDGEPORT     CLEAR     48  42  80 W6        30.20R
MERIDEN        CLEAR     41  38  89 CALM      30.19R
NEW HAVEN      CLEAR     52  41  66 NW6       30.20R
CHESTER        FAIR      45  41  87 CALM      30.19R
GROTON         CLEAR     46  40  79 CALM      30.18R
WILLIMANTIC    CLEAR     42  39  89 CALM      30.19R

 IN RI

CITY           SKY/WX    TMP DP  RH WIND       PRES   REMARKS
PROVIDENCE     CLEAR     46  39  76 W6        30.18R
BLOCK ISLAND   PTCLDY    54  37  54 N8        30.17R
WESTERLY       CLEAR     43  40  89 CALM      30.19R

 IN MA

CITY           SKY/WX    TMP DP  RH WIND       PRES   REMARKS
BOSTON         CLEAR     51  38  60 W8        30.16R
WORCESTER      CLEAR     45  37  73 W5        30.16R
WESTFIELD      CLEAR     41  38  89 CALM      30.17R
PROVINCETOWN   CLEAR     54  39  58 NW17G23   30.15R
NANTUCKET      CLEAR     55  40  56 N16       30.14R
$$

ANZ330-335-338-340-345-350-353-355-230900-
COASTAL MARINE OBSERVATIONS


STATION/POSITION TIME  SKY/WX   TEMP    WIND        PRES    VSBY  WAVE
                                AIR SEA DIR/SP/G                  HT/PER
                 (UTC)          (F)     (DEG/KT/KT) (MB)    (MI)  (FT/S)
NY HARB ENTRANCE 0800            58 69  340/ 14/ 17 1023.0          3/ 9
4S FIRE IS       0800               69                N/A           3/ 9
20S FIRE ISLAND  0800            58 68   10/  8/ 12 1022.7          3/ 9
23SW MTP         0800                                 N/A           5/ 9
HUDSON CANYON    0800            60 70  360/ 12/ 14 1022.1          5/ 9
EXECUTION ROCKS  0800            56 69  320/ 10/ 14   N/A
WESTERN LI SOUND 0800            56     310/  8/ 12   N/A           0
CENTRAL LI SOUND 0700            56 69  320/ 12/ 17   N/A           2/ 3
EASTERN LI SOUND 0700            55 67  330/ 10/ 14   N/A
ROBBINS REEF     0800            54     320/  8/  9 1021.7
$$


>>>>>>>>>>>>>>>>>>>>>>>>>>>> KEY <<<<<<<<<<<<<<<<<<<<<<<<<<<
>                                                          <
>     SKY/WX - SKY CONDITION/PRESENT WEATHER               <
>     TMP    - TEMPERATURE IN FAHRENHEIT                   <
>     DP     - DEWPOINT IN FAHRENHEIT                      <
>     RH     - RELATIVE HUMIDITY IN PERCENT                <
>     WIND   - DIRECTION AND SPEED IN MPH                  <
>     PRES   - MEAN SEA LEVEL PRESSURE IN INCHES OF HG     <
>     WCI    - WIND CHILL INDEX                            <
>     VSB    - VISIBILITY IN MILES                         <
>     HX     - HEAT INDEX                                  <
>     TC     - TEMPERATURE IN CELSIUS                      <
>     VRB    - VARIABLE WIND DIRECTION                     <
>                                                          <
>>>>>>>>>>>>>>>>>>>>>>>>>>>> KEY <<<<<<<<<<<<<<<<<<<<<<<<<<<






U.S. Dept. of Commerce
NOAA National Weather Service
1325 East West Highway
Silver Spring, MD 20910
E-mail: w-nws.webmaster@noaa.gov
Page last modified: May 16, 2007
NATIONAL WEATHER SERVICE: for Safety, for Work, for Fun - FOR LIFE